Meath Environmental Platform

Observations for Trim Market St

Time AQI Temp °C Hum % Pres Pa CO μg/m³ H₂S μg/m³ NO μg/m³ NO₂ μg/m³ O₃ μg/m³ SO₂ μg/m³ PM1 μg/m³ PM2.5 μg/m³ PM10 μg/m³
Saturday 11 July 2026
09:24 1 30.3 37 65,554 0 0 0 0 8.41 0 0.71 3.55 3.91
09:18 1 30.2 37 65,621 0 0 0 0 17.83 0 0 3.56 3.92
09:16 1 30.1 37 65,627 0 0 0 0 17.97 0 0.71 3.02 3.33
09:13 1 30 36 65,619 0 0 0 0 21.45 0 0 3.03 3.33
09:10 1 30.1 37 65,651 0 0 0 0 5.89 0 0 2.48 2.73
09:07 1 29.9 37 65,586 0 0 0 0.15 28.18 0 0.71 3.53 3.88
09:06 1 29.8 38 65,568 0 0 0 0 23.84 0 0 3.52 4.25
09:04 1 29.6 38 65,517 0 0 0 0 23.06 0 1.43 3.51 3.86
09:03 1 29.6 38 65,479 0 0 0 0 33.76 0 0.71 2.98 3.28
09:02 1 29.5 37 65,497 0 0 0 0.17 43.85 0 0 2.46 2.71
09:01 1 29.5 37 65,554 0 0 0 0 26.09 0 0 3 3.3
08:59 1 29.6 38 65,645 0 0 0 0 6.9 0 0 2.98 3.28
08:58 1 29.6 38 65,651 0 0 0 0 12.22 0 0 2.98 3.43
08:57 1 29.6 38 65,631 0 0 0 0 13.33 0 0 2.98 3.28
08:56 1 29.6 38 65,627 0 0 0 0 19.97 0 1.43 3.51 3.86
08:52 1 29.4 38 65,637 0 0 0 0 0 0 0 2.43 2.67
08:51 1 29.4 38 65,635 0 0 0 0 29.2 0 0 2.96 3.45
08:50 1 29.3 38 65,613 0 0 0 0 15.55 0 0 2.96 3.25
08:44 1 29 39 65,468 0 0 0 0 16.38 0 0 2.92 3.21
08:36 1 28.3 40 65,188 0 0 0 0 15.29 0 0 3.4 3.74